FW1036 Weather Reports


time (UTC)temp
C
wind
direction
speed
KPH
gust
KPH
rain 1hr
cm
rain 24hr
cm
rain mn
cm
humidity
%
barometer
mb
20260510143047 10 267 8.0 20.9 0.00 0.05 0.00 52 1015.9
20260510141549 10 253 9.7 19.3 0.00 0.05 0.00 52 1015.8
20260510140041 9 285 8.0 22.5 0.00 0.05 0.00 52 1015.8
20260510134539 8 238 9.7 22.5 0.00 0.05 0.00 54 1015.7
20260510133033 8 246 6.4 19.3 0.00 0.05 0.00 56 1015.5
20260510131530 8 327 9.7 19.3 0.00 0.05 0.00 57 1015.4
20260510130040 7 261 6.4 19.3 0.00 0.05 0.00 58 1015.2
20260510124526 7 246 3.2 12.9 0.00 0.05 0.00 63 1015.1
20260510123020 6 230 1.6 9.7 0.00 0.05 0.00 66 1014.9
20260510121515 6 248 3.2 11.3 0.00 0.05 0.00 70 1014.8
20260510120025 5 255 1.6 6.4 0.00 0.05 0.00 76 1014.8
20260510114513 4 246 3.2 6.4 0.00 0.05 0.00 77 1014.6
20260510113004 3 244 1.6 6.4 0.00 0.05 0.00 80 1014.4
20260510111600 2 244 3.2 6.4 0.00 0.05 0.00 80 1014.2
20260510110057 2 273 0.0 3.2 0.00 0.05 0.00 80 1013.8
20260510104558 1 273 0.0 3.2 0.00 0.05 0.00 80 1013.6
20260510103052 1 273 1.6 3.2 0.00 0.05 0.00 80 1013.5
20260510101550 1 273 0.0 1.6 0.00 0.05 0.00 79 1013.1
20260510100046 2 273 0.0 4.8 0.00 0.05 0.00 78 1012.9
20260510094544 2 284 0.0 4.8 0.00 0.05 0.00 79 1012.8
20260510093044 2 291 0.0 3.2 0.00 0.05 0.00 80 1012.5
20260510091540 2 291 0.0 0.0 0.00 0.05 0.00 80 1012.5
20260510090038 2 291 1.6 3.2 0.00 0.05 0.00 80 1012.3
20260510084537 2 291 0.0 6.4 0.00 0.05 0.00 80 1011.9
20260510083039 2 269 0.0 3.2 0.00 0.05 0.00 81 1011.8
20260510081535 2 271 0.0 3.2 0.00 0.05 0.00 81 1011.4
20260510080030 2 271 0.0 3.2 0.00 0.05 0.00 81 1011.2
20260510074528 2 277 1.6 4.8 0.00 0.05 0.00 80 1011.0
20260510073027 3 284 1.6 4.8 0.00 0.05 0.00 80 1010.7
20260510071526 2 283 0.0 3.2 0.00 0.05 0.00 82 1010.6
20260510070031 3 283 1.6 6.4 0.00 0.05 0.00 82 1010.7
20260510064532 2 173 1.6 6.4 0.00 0.05 0.00 82 1010.6
20260510063021 2 92 0.0 1.6 0.00 0.05 0.00 82 1010.3
20260510061523 2 92 1.6 3.2 0.00 0.05 0.00 82 1010.3
20260510060015 3 20 0.0 3.2 0.00 0.05 0.00 80 1010.2
20260510054513 3 20 0.0 1.6 0.00 0.05 0.00 79 1010.1
20260510053020 3 20 3.2 8.0 0.00 0.05 0.00 78 1009.8
20260510051512 3 19 4.8 9.7 0.00 0.05 0.00 79 1009.8
20260510050007 3 34 8.0 12.9 0.00 0.05 0.00 78 1009.6
20260510044510 4 36 9.7 14.5 0.00 0.05 0.00 76 1009.3
20260510043001 5 42 9.7 19.3 0.00 0.05 0.00 74 1009.1
20260510041557 5 26 12.9 19.3 0.00 0.05 0.00 72 1008.9
20260510040053 6 35 19.3 29.0 0.00 0.05 0.00 70 1008.6
20260510034550 7 299 0.0 3.2 0.00 0.05 0.05 64 1008.1
20260510033056 8 269 0.0 1.6 0.00 0.05 0.05 62 1008.0
20260510031546 8 269 0.0 6.4 0.00 0.05 0.05 60 1007.8
20260510030043 10 257 0.0 9.7 0.00 0.05 0.05 58 1007.5
20260510024541 10 308 3.2 8.0 0.00 0.05 0.05 58 1007.3
20260510023040 10 319 1.6 6.4 0.00 0.05 0.05 58 1006.8
20260510021538 10 308 4.8 20.9 0.00 0.05 0.05 59 1006.6
20260510020035 10 295 1.6 12.9 0.00 0.05 0.05 60 1006.4
20260510014533 11 270 1.6 12.9 0.00 0.05 0.05 59 1005.9
20260510013033 11 260 3.2 14.5 0.00 0.05 0.05 58 1005.6
20260510011533 11 314 0.0 9.7 0.00 0.05 0.05 59 1005.2
20260510010031 11 264 1.6 14.5 0.00 0.05 0.05 60 1004.8
20260510004531 11 339 1.6 12.9 0.00 0.05 0.05 61 1004.4
20260510003030 12 273 1.6 16.1 0.00 0.05 0.05 60 1004.1
20260510001531 12 355 4.8 17.7 0.00 0.05 0.05 58 1003.7
20260510000036 13 338 4.8 17.7 0.00 0.05 0.05 56 1003.3
20260509234539 15 306 6.4 24.1 0.00 0.05 0.05 52 1003.0
20260509233029 15 296 14.5 27.4 0.00 0.05 0.05 49 1002.7
20260509231529 15 216 9.7 29.0 0.00 0.05 0.05 48 1002.4
20260509230028 16 267 9.7 32.2 0.00 0.05 0.05 49 1001.9
20260509224538 16 219 9.7 27.4 0.00 0.05 0.05 50 1001.4
20260509223027 16 257 9.7 25.7 0.00 0.05 0.05 50 1001.1
20260509221530 17 318 12.9 25.7 0.00 0.05 0.05 50 1000.8
20260509220025 17 246 12.9 35.4 0.00 0.05 0.05 50 1000.6
20260509214524 17 290 11.3 30.6 0.00 0.05 0.05 45 1000.3
20260509213025 18 298 12.9 27.4 0.00 0.05 0.05 45 1000.2
20260509211523 18 266 14.5 32.2 0.00 0.05 0.05 42 1000.1
20260509210022 18 268 20.9 40.2 0.00 0.05 0.05 43 999.9
20260509204520 18 204 19.3 35.4 0.00 0.05 0.05 43 999.7
20260509203018 18 257 20.9 43.5 0.00 0.05 0.05 44 999.7
20260509201516 18 244 19.3 38.6 0.00 0.05 0.05 46 999.8
20260509200014 18 264 16.1 30.6 0.00 0.05 0.05 49 999.8
20260509194512 18 269 14.5 32.2 0.03 0.05 0.05 52 999.7
20260509193012 17 232 17.7 38.6 0.03 0.05 0.05 52 999.8
20260509191511 17 272 11.3 41.8 0.05 0.05 0.05 54 999.8
20260509190011 17 236 19.3 40.2 0.05 0.05 0.05 58 999.8
20260509184519 16 227 14.5 33.8 0.03 0.03 0.03 69 1000.3
20260509183010 13 274 14.5 33.8 0.03 0.03 0.03 74 1000.2
20260509181509 17 246 19.3 33.8 0.00 0.00 0.00 52 999.1
20260509180008 18 227 16.1 29.0 0.00 0.00 0.00 55 999.0
20260509174508 18 232 19.3 27.4 0.00 0.00 0.00 55 998.9
20260509173005 18 209 17.7 33.8 0.00 0.00 0.00 60 999.4
20260509171502 17 191 11.3 27.4 0.00 0.00 0.00 63 999.7
20260509170100 17 201 12.9 27.4 0.00 0.00 0.00 65 999.8
20260509164559 16 128 14.5 37.0 0.00 0.00 0.00 67 999.7
20260509163058 16 173 16.1 30.6 0.00 0.00 0.00 66 999.7
20260509161602 15 205 11.3 37.0 0.00 0.00 0.00 70 999.8
20260509160051 15 164 14.5 33.8 0.00 0.00 0.00 72 999.7
20260509154553 14 185 14.5 33.8 0.00 0.00 0.00 67 1000.0
20260509153101 14 189 9.7 24.1 0.00 0.00 0.00 64 1000.3
20260509151557 14 173 9.7 20.9 0.00 0.00 0.00 67 1000.5
20260509150045 14 192 16.1 37.0 0.00 0.00 0.00 68 1000.6
20260509144541 14 165 11.3 32.2 0.00 0.00 0.00 73 1000.9